Regional Weather Roundup
Issued by NWS State College, PA

Home | Current Version | Previous Version | Graphics & Text | Print | Product List | Glossary On
Versions: 1 2 3 4 5 6 7 8 9 10 11 12 13 14 15 16 17 18 19 20 21 22 23 24 25 26 27 28 29 30 31 32 33 34 35 36 37 38 39 40 41 42 43 44 45 46 47 48 49 50
000
ASUS41 KCTP 231910
RWRCTP

REGIONAL WEATHER ROUNDUP
NATIONAL WEATHER SERVICE STATE COLLEGE PA
300 PM EDT TUE AUG 23 2016

Note: "fair" indicates few or no clouds below 12,000 feet with no
significant weather and/or obstructions to visibility.

* = STATION THAT DOES NOT REPORT PRECIPITATION /E.G. RAIN...SNOW...ETC/
    THUNDER OR FOG.

PAZ002>004-007>009-013>016-020>023-029>032-232000-
WESTERN PENNSYLVANIA

CITY           SKY/WX    TMP DP  RH WIND       PRES   REMARKS
ERIE           SUNNY     79  60  52 W6        30.27F
MEADVILLE      SUNNY     76  54  46 CALM      30.30F
FRANKLIN*      PTSUNNY   75  55  50 SW9       30.31F
NEW CASTLE     MOCLDY    81  57  43 VRB3      30.30S
BEAVER COUNTY  MOSUNNY   82  57  42 S9        30.30F
BUTLER*        NOT AVBL
PITTSBURGH INT MOSUNNY   79  55  43 VRB6      30.29F
PITTSBURGH     MOSUNNY   79  56  45 S3        30.29F
INDIANA*       MOSUNNY   79  57  47 VRB7      30.33F
LATROBE        MOSUNNY   79  59  50 W6        30.31F
WASHINGTON CO* PTSUNNY   79  57  47 SE7       30.31S
$$

PAZ004>006-010>012-017>019-024>028-033>037-041-042-045-046-049>053-232000-
CENTRAL PENNSYLVANIA

CITY           SKY/WX    TMP DP  RH WIND       PRES   REMARKS
BRADFORD       SUNNY     75  54  47 VRB3      30.32F
DUBOIS         MOSUNNY   76  53  44 VRB7      30.32F
CLEARFIELD     SUNNY     80  54  40 S10       30.31F
JOHNSTOWN      SUNNY     76  56  49 VRB6      30.34F
ALTOONA        SUNNY     78  57  48 VRB3      30.33F
STATE COLLEGE  MOSUNNY   77  59  53 S7        30.32F
WILLIAMSPORT   SUNNY     79  57  46 VRB3      30.27F
SELINSGROVE    MOSUNNY   80  57  45 CALM      30.30F
FT INDIANTOWN  MOSUNNY   78  56  46 VRB3      30.30F
CAPITAL CITY   MOSUNNY   83  53  35 MISG      30.29F
HARRISBURG     MOSUNNY   81  58  45 CALM      30.29F
YORK           SUNNY     82  57  42 VRB5      30.31F
$$

PAZ038>040-043-044-047-048-054-055-060>062-067>071-232000-
EASTERN PENNSYLVANIA

CITY           SKY/WX    TMP DP  RH WIND       PRES   REMARKS
SCRANTON       MOSUNNY   78  56  46 W12       30.30F
MOUNT POCONO   MOSUNNY   73  52  47 W5G17     30.34F
ALLENTOWN      SUNNY     80  55  42 S3        30.30F
QUAKERTOWN*    CLEAR     79  54  41 CALM      30.31F
READING        MOSUNNY   80  52  37 NW6       30.29F
LANCASTER      SUNNY     80  58  46 NW8       30.31F
COATESVILLE    CLEAR     77  52  41 NW8       30.33F
POTTSTOWN      SUNNY     79  53  40 VRB3      30.31F
BLUE BELL      MOSUNNY   79  54  41 W3        30.29F
DOYLESTOWN     SUNNY     82  54  37 NW5       30.29F
WILLOW GROVE   NOT AVBL
NORTH PHILA    SUNNY     81  52  36 VRB3      30.30F
PHILADELPHIA   MOSUNNY   81  51  35 SW8       30.29F
$$




USA.gov is the U.S. government's official web portal to all federal, state and local government web resources and services.